owner,sensor,date,latitude,longitude,air_pressure(mBar),qcFlag 
WAVCIS,ioos:station:WAVCIS:CSI16:1,2009-12-01T00:00:00Z,29.4012,-89.0355,1009.29,11111222 
WAVCIS,ioos:station:WAVCIS:CSI16:1,2009-12-01T01:00:00Z,29.4012,-89.0355,1010.16,11111222 
WAVCIS,ioos:station:WAVCIS:CSI16:1,2009-12-01T02:00:00Z,29.4012,-89.0355,1010.99,11111222 
WAVCIS,ioos:station:WAVCIS:CSI16:1,2009-12-01T03:00:00Z,29.4012,-89.0355,1010.96,11111222 
WAVCIS,ioos:station:WAVCIS:CSI16:1,2009-12-01T04:00:00Z,29.4012,-89.0355,1011.93,11111222 
WAVCIS,ioos:station:WAVCIS:CSI16:1,2009-12-01T05:00:00Z,29.4012,-89.0355,1011.88,11111222 
WAVCIS,ioos:station:WAVCIS:CSI16:1,2009-12-01T06:00:00Z,29.4012,-89.0355,1011.04,11111222 
WAVCIS,ioos:station:WAVCIS:CSI16:1,2009-12-01T07:00:00Z,29.4012,-89.0355,1010.13,11111222 
WAVCIS,ioos:station:WAVCIS:CSI16:1,2009-12-01T08:00:00Z,29.4012,-89.0355,1009.71,11111222 
WAVCIS,ioos:station:WAVCIS:CSI16:1,2009-12-01T09:00:00Z,29.4012,-89.0355,1009.55,11111222 
WAVCIS,ioos:station:WAVCIS:CSI16:1,2009-12-01T10:00:00Z,29.4012,-89.0355,1009.94,11111222 
WAVCIS,ioos:station:WAVCIS:CSI16:1,2009-12-01T11:00:00Z,29.4012,-89.0355,1009.43,11111222 
WAVCIS,ioos:station:WAVCIS:CSI16:1,2009-12-01T12:00:00Z,29.4012,-89.0355,1009.18,11111222 
WAVCIS,ioos:station:WAVCIS:CSI16:1,2009-12-01T13:00:00Z,29.4012,-89.0355,1008.66,11111222 
WAVCIS,ioos:station:WAVCIS:CSI16:1,2009-12-01T14:00:00Z,29.4012,-89.0355,1008.22,11111222 
WAVCIS,ioos:station:WAVCIS:CSI16:1,2009-12-01T15:00:00Z,29.4012,-89.0355,1008.03,11111222 
WAVCIS,ioos:station:WAVCIS:CSI16:1,2009-12-01T16:00:00Z,29.4012,-89.0355,1008.78,11111222 
WAVCIS,ioos:station:WAVCIS:CSI16:1,2009-12-01T17:00:00Z,29.4012,-89.0355,1007.32,11111222 
WAVCIS,ioos:station:WAVCIS:CSI16:1,2009-12-01T18:00:00Z,29.4012,-89.0355,1005.563,11111222 
WAVCIS,ioos:station:WAVCIS:CSI16:1,2009-12-01T19:00:00Z,29.4012,-89.0355,1004.112,11111222 
WAVCIS,ioos:station:WAVCIS:CSI16:1,2009-12-01T20:00:00Z,29.4012,-89.0355,1002.753,11111222 
WAVCIS,ioos:station:WAVCIS:CSI16:1,2009-12-01T21:00:00Z,29.4012,-89.0355,1001.823,11111222 
WAVCIS,ioos:station:WAVCIS:CSI16:1,2009-12-01T22:00:00Z,29.4012,-89.0355,999.75,11111222 
WAVCIS,ioos:station:WAVCIS:CSI16:1,2009-12-01T23:00:00Z,29.4012,-89.0355,999.187,11111222 
WAVCIS,ioos:station:WAVCIS:CSI16:1,2009-12-02T00:00:00Z,29.4012,-89.0355,998.861,11111222 
WAVCIS,ioos:station:WAVCIS:CSI16:1,2009-12-02T01:00:00Z,29.4012,-89.0355,997.36,11111222 
WAVCIS,ioos:station:WAVCIS:CSI16:1,2009-12-02T02:00:00Z,29.4012,-89.0355,998.072,11111222 
WAVCIS,ioos:station:WAVCIS:CSI16:1,2009-12-02T03:00:00Z,29.4012,-89.0355,998.502,11111222 
WAVCIS,ioos:station:WAVCIS:CSI16:1,2009-12-02T04:00:00Z,29.4012,-89.0355,998.91,11111222 
WAVCIS,ioos:station:WAVCIS:CSI16:1,2009-12-02T05:00:00Z,29.4012,-89.0355,997.654,11111222 
WAVCIS,ioos:station:WAVCIS:CSI16:1,2009-12-02T06:00:00Z,29.4012,-89.0355,996.268,11111222 
WAVCIS,ioos:station:WAVCIS:CSI16:1,2009-12-02T07:00:00Z,29.4012,-89.0355,996.224,11111222 
WAVCIS,ioos:station:WAVCIS:CSI16:1,2009-12-02T08:00:00Z,29.4012,-89.0355,996.03,11111222 
WAVCIS,ioos:station:WAVCIS:CSI16:1,2009-12-02T09:00:00Z,29.4012,-89.0355,995.287,11111222 
WAVCIS,ioos:station:WAVCIS:CSI16:1,2009-12-02T10:00:00Z,29.4012,-89.0355,994.321,11111222 
WAVCIS,ioos:station:WAVCIS:CSI16:1,2009-12-02T11:00:00Z,29.4012,-89.0355,994.378,11111222 
WAVCIS,ioos:station:WAVCIS:CSI16:1,2009-12-02T12:00:00Z,29.4012,-89.0355,995.829,11111222 
WAVCIS,ioos:station:WAVCIS:CSI16:1,2009-12-02T13:00:00Z,29.4012,-89.0355,996.652,11111222 
WAVCIS,ioos:station:WAVCIS:CSI16:1,2009-12-02T14:00:00Z,29.4012,-89.0355,998.48,11111222 
WAVCIS,ioos:station:WAVCIS:CSI16:1,2009-12-02T15:00:00Z,29.4012,-89.0355,999.448,11111222 
WAVCIS,ioos:station:WAVCIS:CSI16:1,2009-12-02T16:00:00Z,29.4012,-89.0355,1000.282,11111222 
WAVCIS,ioos:station:WAVCIS:CSI16:1,2009-12-02T17:00:00Z,29.4012,-89.0355,1000.173,11111222 
WAVCIS,ioos:station:WAVCIS:CSI16:1,2009-12-02T18:00:00Z,29.4012,-89.0355,999.611,11111222 
WAVCIS,ioos:station:WAVCIS:CSI16:1,2009-12-02T19:00:00Z,29.4012,-89.0355,999.168,11111222 
WAVCIS,ioos:station:WAVCIS:CSI16:1,2009-12-02T20:00:00Z,29.4012,-89.0355,998.742,11111222 
WAVCIS,ioos:station:WAVCIS:CSI16:1,2009-12-02T21:00:00Z,29.4012,-89.0355,999.175,11111222 
WAVCIS,ioos:station:WAVCIS:CSI16:1,2009-12-02T22:00:00Z,29.4012,-89.0355,1000.059,11111222 
WAVCIS,ioos:station:WAVCIS:CSI16:1,2009-12-02T23:00:00Z,29.4012,-89.0355,1000.932,11111222 
WAVCIS,ioos:station:WAVCIS:CSI16:1,2009-12-03T00:00:00Z,29.4012,-89.0355,1002.087,11111222 
WAVCIS,ioos:station:WAVCIS:CSI16:1,2009-12-03T01:00:00Z,29.4012,-89.0355,1003.085,11111222 
WAVCIS,ioos:station:WAVCIS:CSI16:1,2009-12-03T02:00:00Z,29.4012,-89.0355,1003.966,11111222 
WAVCIS,ioos:station:WAVCIS:CSI16:1,2009-12-03T03:00:00Z,29.4012,-89.0355,1004.673,11111222 
WAVCIS,ioos:station:WAVCIS:CSI16:1,2009-12-03T04:00:00Z,29.4012,-89.0355,1005.282,11111222 
WAVCIS,ioos:station:WAVCIS:CSI16:1,2009-12-03T05:00:00Z,29.4012,-89.0355,1005.557,11111222 
WAVCIS,ioos:station:WAVCIS:CSI16:1,2009-12-03T06:00:00Z,29.4012,-89.0355,1005.64,11111222 
WAVCIS,ioos:station:WAVCIS:CSI16:1,2009-12-03T07:00:00Z,29.4012,-89.0355,1005.636,11111222 
WAVCIS,ioos:station:WAVCIS:CSI16:1,2009-12-03T08:00:00Z,29.4012,-89.0355,1006.582,11111222 
WAVCIS,ioos:station:WAVCIS:CSI16:1,2009-12-03T09:00:00Z,29.4012,-89.0355,1007.57,11111222 
WAVCIS,ioos:station:WAVCIS:CSI16:1,2009-12-03T10:00:00Z,29.4012,-89.0355,1008.14,11111222 
WAVCIS,ioos:station:WAVCIS:CSI16:1,2009-12-03T11:00:00Z,29.4012,-89.0355,1008.58,11111222 
WAVCIS,ioos:station:WAVCIS:CSI16:1,2009-12-03T12:00:00Z,29.4012,-89.0355,1009.1,11111222 
WAVCIS,ioos:station:WAVCIS:CSI16:1,2009-12-03T13:00:00Z,29.4012,-89.0355,1009.99,11111222 
WAVCIS,ioos:station:WAVCIS:CSI16:1,2009-12-03T14:00:00Z,29.4012,-89.0355,1010.76,11111222 
WAVCIS,ioos:station:WAVCIS:CSI16:1,2009-12-03T15:00:00Z,29.4012,-89.0355,1011.69,11111222 
WAVCIS,ioos:station:WAVCIS:CSI16:1,2009-12-03T16:00:00Z,29.4012,-89.0355,1012.12,11111222 
WAVCIS,ioos:station:WAVCIS:CSI16:1,2009-12-03T17:00:00Z,29.4012,-89.0355,1012.37,11111222 
WAVCIS,ioos:station:WAVCIS:CSI16:1,2009-12-03T18:00:00Z,29.4012,-89.0355,1011.93,11111222 
WAVCIS,ioos:station:WAVCIS:CSI16:1,2009-12-03T19:00:00Z,29.4012,-89.0355,1011.63,11111222 
WAVCIS,ioos:station:WAVCIS:CSI16:1,2009-12-03T20:00:00Z,29.4012,-89.0355,1011.51,11111222 
WAVCIS,ioos:station:WAVCIS:CSI16:1,2009-12-03T21:00:00Z,29.4012,-89.0355,1012.06,11111222 
WAVCIS,ioos:station:WAVCIS:CSI16:1,2009-12-03T22:00:00Z,29.4012,-89.0355,1012.59,11111222 
WAVCIS,ioos:station:WAVCIS:CSI16:1,2009-12-03T23:00:00Z,29.4012,-89.0355,1012.39,11111222 
WAVCIS,ioos:station:WAVCIS:CSI16:1,2009-12-04T00:00:00Z,29.4012,-89.0355,1012.85,11111222 
WAVCIS,ioos:station:WAVCIS:CSI16:1,2009-12-04T01:00:00Z,29.4012,-89.0355,1013.3,11111222 
WAVCIS,ioos:station:WAVCIS:CSI16:1,2009-12-04T02:00:00Z,29.4012,-89.0355,1013.66,11111222 
WAVCIS,ioos:station:WAVCIS:CSI16:1,2009-12-04T03:00:00Z,29.4012,-89.0355,1013.99,11111222 
WAVCIS,ioos:station:WAVCIS:CSI16:1,2009-12-04T04:00:00Z,29.4012,-89.0355,1014.63,11111222 
WAVCIS,ioos:station:WAVCIS:CSI16:1,2009-12-04T05:00:00Z,29.4012,-89.0355,1014.84,11111222 
WAVCIS,ioos:station:WAVCIS:CSI16:1,2009-12-04T06:00:00Z,29.4012,-89.0355,1014.3,11111222 
WAVCIS,ioos:station:WAVCIS:CSI16:1,2009-12-04T07:00:00Z,29.4012,-89.0355,1013.9,11111222 
WAVCIS,ioos:station:WAVCIS:CSI16:1,2009-12-04T08:00:00Z,29.4012,-89.0355,1014.14,11111222 
WAVCIS,ioos:station:WAVCIS:CSI16:1,2009-12-04T09:00:00Z,29.4012,-89.0355,1014.41,11111222 
WAVCIS,ioos:station:WAVCIS:CSI16:1,2009-12-04T10:00:00Z,29.4012,-89.0355,1014.26,11111222 
WAVCIS,ioos:station:WAVCIS:CSI16:1,2009-12-04T11:00:00Z,29.4012,-89.0355,1013.3,11111222 
WAVCIS,ioos:station:WAVCIS:CSI16:1,2009-12-04T12:00:00Z,29.4012,-89.0355,1013.76,11111222 
WAVCIS,ioos:station:WAVCIS:CSI16:1,2009-12-04T13:00:00Z,29.4012,-89.0355,1013.78,11111222 
WAVCIS,ioos:station:WAVCIS:CSI16:1,2009-12-04T14:00:00Z,29.4012,-89.0355,1014.81,11111222 
WAVCIS,ioos:station:WAVCIS:CSI16:1,2009-12-04T15:00:00Z,29.4012,-89.0355,1015.49,11111222 
WAVCIS,ioos:station:WAVCIS:CSI16:1,2009-12-04T16:00:00Z,29.4012,-89.0355,1014.76,11111222 
WAVCIS,ioos:station:WAVCIS:CSI16:1,2009-12-04T17:00:00Z,29.4012,-89.0355,1014.04,11111222 
WAVCIS,ioos:station:WAVCIS:CSI16:1,2009-12-04T18:00:00Z,29.4012,-89.0355,1012.56,11111222 
WAVCIS,ioos:station:WAVCIS:CSI16:1,2009-12-04T19:00:00Z,29.4012,-89.0355,1010.26,11111222 
WAVCIS,ioos:station:WAVCIS:CSI16:1,2009-12-04T20:00:00Z,29.4012,-89.0355,1009.75,11111222 
WAVCIS,ioos:station:WAVCIS:CSI16:1,2009-12-04T21:00:00Z,29.4012,-89.0355,1009.93,11111222 
WAVCIS,ioos:station:WAVCIS:CSI16:1,2009-12-04T22:00:00Z,29.4012,-89.0355,1009.31,11111222 
WAVCIS,ioos:station:WAVCIS:CSI16:1,2009-12-04T23:00:00Z,29.4012,-89.0355,1010.26,11111222 
WAVCIS,ioos:station:WAVCIS:CSI16:1,2009-12-05T00:00:00Z,29.4012,-89.0355,1010.74,11111222 
WAVCIS,ioos:station:WAVCIS:CSI16:1,2009-12-05T01:00:00Z,29.4012,-89.0355,1011.34,11111222 
WAVCIS,ioos:station:WAVCIS:CSI16:1,2009-12-05T02:00:00Z,29.4012,-89.0355,1011.02,11111222 
WAVCIS,ioos:station:WAVCIS:CSI16:1,2009-12-05T03:00:00Z,29.4012,-89.0355,1012.12,11111222 
WAVCIS,ioos:station:WAVCIS:CSI16:1,2009-12-05T04:00:00Z,29.4012,-89.0355,1012.55,11111222 
WAVCIS,ioos:station:WAVCIS:CSI16:1,2009-12-05T05:00:00Z,29.4012,-89.0355,1013.72,11111222 
WAVCIS,ioos:station:WAVCIS:CSI16:1,2009-12-05T06:00:00Z,29.4012,-89.0355,1012.75,11111222 
WAVCIS,ioos:station:WAVCIS:CSI16:1,2009-12-05T07:00:00Z,29.4012,-89.0355,1011.95,11111222 
WAVCIS,ioos:station:WAVCIS:CSI16:1,2009-12-05T08:00:00Z,29.4012,-89.0355,1012.05,11111222 
WAVCIS,ioos:station:WAVCIS:CSI16:1,2009-12-05T09:00:00Z,29.4012,-89.0355,1012.53,11111222 
WAVCIS,ioos:station:WAVCIS:CSI16:1,2009-12-05T10:00:00Z,29.4012,-89.0355,1012.64,11111222 
WAVCIS,ioos:station:WAVCIS:CSI16:1,2009-12-05T11:00:00Z,29.4012,-89.0355,1013.05,11111222 
WAVCIS,ioos:station:WAVCIS:CSI16:1,2009-12-05T12:00:00Z,29.4012,-89.0355,1013.87,11111222 
WAVCIS,ioos:station:WAVCIS:CSI16:1,2009-12-05T13:00:00Z,29.4012,-89.0355,1014.27,11111222 
WAVCIS,ioos:station:WAVCIS:CSI16:1,2009-12-05T14:00:00Z,29.4012,-89.0355,1014.96,11111222 
WAVCIS,ioos:station:WAVCIS:CSI16:1,2009-12-05T15:00:00Z,29.4012,-89.0355,1015.49,11111222 
WAVCIS,ioos:station:WAVCIS:CSI16:1,2009-12-05T16:00:00Z,29.4012,-89.0355,1015.8,11111222 
WAVCIS,ioos:station:WAVCIS:CSI16:1,2009-12-05T17:00:00Z,29.4012,-89.0355,1015.45,11111222 
WAVCIS,ioos:station:WAVCIS:CSI16:1,2009-12-05T18:00:00Z,29.4012,-89.0355,1014.66,11111222 
WAVCIS,ioos:station:WAVCIS:CSI16:1,2009-12-05T19:00:00Z,29.4012,-89.0355,1014.36,11111222 
WAVCIS,ioos:station:WAVCIS:CSI16:1,2009-12-05T20:00:00Z,29.4012,-89.0355,1014.34,11111222 
WAVCIS,ioos:station:WAVCIS:CSI16:1,2009-12-05T21:00:00Z,29.4012,-89.0355,1014.65,11111222 
WAVCIS,ioos:station:WAVCIS:CSI16:1,2009-12-05T22:00:00Z,29.4012,-89.0355,1014.72,11111222 
WAVCIS,ioos:station:WAVCIS:CSI16:1,2009-12-05T23:00:00Z,29.4012,-89.0355,1015.03,11111222 
WAVCIS,ioos:station:WAVCIS:CSI16:1,2009-12-06T00:00:00Z,29.4012,-89.0355,1015.07,11111222 
WAVCIS,ioos:station:WAVCIS:CSI16:1,2009-12-06T01:00:00Z,29.4012,-89.0355,1015.26,11111222 
WAVCIS,ioos:station:WAVCIS:CSI16:1,2009-12-06T02:00:00Z,29.4012,-89.0355,1014.73,11111222 
WAVCIS,ioos:station:WAVCIS:CSI16:1,2009-12-06T03:00:00Z,29.4012,-89.0355,1014.47,11111222 
WAVCIS,ioos:station:WAVCIS:CSI16:1,2009-12-06T04:00:00Z,29.4012,-89.0355,1014.99,11111222 
WAVCIS,ioos:station:WAVCIS:CSI16:1,2009-12-06T05:00:00Z,29.4012,-89.0355,1014.59,11111222 
WAVCIS,ioos:station:WAVCIS:CSI16:1,2009-12-06T06:00:00Z,29.4012,-89.0355,1014.61,11111222 
WAVCIS,ioos:station:WAVCIS:CSI16:1,2009-12-06T07:00:00Z,29.4012,-89.0355,1014.75,11111222 
WAVCIS,ioos:station:WAVCIS:CSI16:1,2009-12-06T08:00:00Z,29.4012,-89.0355,1014.85,11111222 
WAVCIS,ioos:station:WAVCIS:CSI16:1,2009-12-06T09:00:00Z,29.4012,-89.0355,1014.92,11111222 
WAVCIS,ioos:station:WAVCIS:CSI16:1,2009-12-06T10:00:00Z,29.4012,-89.0355,1015.83,11111222 
WAVCIS,ioos:station:WAVCIS:CSI16:1,2009-12-06T11:00:00Z,29.4012,-89.0355,1015.49,11111222 
WAVCIS,ioos:station:WAVCIS:CSI16:1,2009-12-06T12:00:00Z,29.4012,-89.0355,1015.53,11111222 
WAVCIS,ioos:station:WAVCIS:CSI16:1,2009-12-06T13:00:00Z,29.4012,-89.0355,1014.69,11111222 
WAVCIS,ioos:station:WAVCIS:CSI16:1,2009-12-06T14:00:00Z,29.4012,-89.0355,1016.32,11111222 
WAVCIS,ioos:station:WAVCIS:CSI16:1,2009-12-06T15:00:00Z,29.4012,-89.0355,1016.95,11111222 
WAVCIS,ioos:station:WAVCIS:CSI16:1,2009-12-06T16:00:00Z,29.4012,-89.0355,1017.88,11111222 
WAVCIS,ioos:station:WAVCIS:CSI16:1,2009-12-06T17:00:00Z,29.4012,-89.0355,1016.84,11111222 
WAVCIS,ioos:station:WAVCIS:CSI16:1,2009-12-06T18:00:00Z,29.4012,-89.0355,1015.81,11111222 
WAVCIS,ioos:station:WAVCIS:CSI16:1,2009-12-06T19:00:00Z,29.4012,-89.0355,1015.6,11111222 
WAVCIS,ioos:station:WAVCIS:CSI16:1,2009-12-06T20:00:00Z,29.4012,-89.0355,1014.59,11111222 
WAVCIS,ioos:station:WAVCIS:CSI16:1,2009-12-06T21:00:00Z,29.4012,-89.0355,1014.4,11111222 
WAVCIS,ioos:station:WAVCIS:CSI16:1,2009-12-06T22:00:00Z,29.4012,-89.0355,1015.07,11111222 
WAVCIS,ioos:station:WAVCIS:CSI16:1,2009-12-06T23:00:00Z,29.4012,-89.0355,1014.71,11111222 
WAVCIS,ioos:station:WAVCIS:CSI16:1,2009-12-07T00:00:00Z,29.4012,-89.0355,1014.94,11111222 
WAVCIS,ioos:station:WAVCIS:CSI16:1,2009-12-07T01:00:00Z,29.4012,-89.0355,1015.34,11111222 
WAVCIS,ioos:station:WAVCIS:CSI16:1,2009-12-07T02:00:00Z,29.4012,-89.0355,1015.17,11111222 
WAVCIS,ioos:station:WAVCIS:CSI16:1,2009-12-07T03:00:00Z,29.4012,-89.0355,1014.47,11111222 
WAVCIS,ioos:station:WAVCIS:CSI16:1,2009-12-07T04:00:00Z,29.4012,-89.0355,1014.3,11111222 
WAVCIS,ioos:station:WAVCIS:CSI16:1,2009-12-07T05:00:00Z,29.4012,-89.0355,1013.6,11111222 
WAVCIS,ioos:station:WAVCIS:CSI16:1,2009-12-07T06:00:00Z,29.4012,-89.0355,1014.37,11111222 
WAVCIS,ioos:station:WAVCIS:CSI16:1,2009-12-07T07:00:00Z,29.4012,-89.0355,1013.82,11111222 
WAVCIS,ioos:station:WAVCIS:CSI16:1,2009-12-07T08:00:00Z,29.4012,-89.0355,1013.24,11111222 
WAVCIS,ioos:station:WAVCIS:CSI16:1,2009-12-07T09:00:00Z,29.4012,-89.0355,1013.49,11111222 
WAVCIS,ioos:station:WAVCIS:CSI16:1,2009-12-07T10:00:00Z,29.4012,-89.0355,1013.46,11111222 
WAVCIS,ioos:station:WAVCIS:CSI16:1,2009-12-07T11:00:00Z,29.4012,-89.0355,1013.41,11111222 
WAVCIS,ioos:station:WAVCIS:CSI16:1,2009-12-07T12:00:00Z,29.4012,-89.0355,1013.92,11111222 
WAVCIS,ioos:station:WAVCIS:CSI16:1,2009-12-07T13:00:00Z,29.4012,-89.0355,1013.97,11111222 
WAVCIS,ioos:station:WAVCIS:CSI16:1,2009-12-07T14:00:00Z,29.4012,-89.0355,1014.92,11111222 
WAVCIS,ioos:station:WAVCIS:CSI16:1,2009-12-07T15:00:00Z,29.4012,-89.0355,1015.49,11111222 
WAVCIS,ioos:station:WAVCIS:CSI16:1,2009-12-07T16:00:00Z,29.4012,-89.0355,1015.52,11111222 
WAVCIS,ioos:station:WAVCIS:CSI16:1,2009-12-07T17:00:00Z,29.4012,-89.0355,1015.68,11111222 
WAVCIS,ioos:station:WAVCIS:CSI16:1,2009-12-07T18:00:00Z,29.4012,-89.0355,1014.51,11111222 
WAVCIS,ioos:station:WAVCIS:CSI16:1,2009-12-07T19:00:00Z,29.4012,-89.0355,1013.78,11111222 
WAVCIS,ioos:station:WAVCIS:CSI16:1,2009-12-07T20:00:00Z,29.4012,-89.0355,1012.9,11111222 
WAVCIS,ioos:station:WAVCIS:CSI16:1,2009-12-07T21:00:00Z,29.4012,-89.0355,1013.49,11111222 
WAVCIS,ioos:station:WAVCIS:CSI16:1,2009-12-07T22:00:00Z,29.4012,-89.0355,1013.49,11111222 
WAVCIS,ioos:station:WAVCIS:CSI16:1,2009-12-07T23:00:00Z,29.4012,-89.0355,1013.34,11111222 
WAVCIS,ioos:station:WAVCIS:CSI16:1,2009-12-08T00:00:00Z,29.4012,-89.0355,1013.26,11111222 
WAVCIS,ioos:station:WAVCIS:CSI16:1,2009-12-08T01:00:00Z,29.4012,-89.0355,1013.54,11111222 
WAVCIS,ioos:station:WAVCIS:CSI16:1,2009-12-08T02:00:00Z,29.4012,-89.0355,1013.54,11111222 
WAVCIS,ioos:station:WAVCIS:CSI16:1,2009-12-08T03:00:00Z,29.4012,-89.0355,1013.76,11111222 
WAVCIS,ioos:station:WAVCIS:CSI16:1,2009-12-08T04:00:00Z,29.4012,-89.0355,1013.25,11111222 
WAVCIS,ioos:station:WAVCIS:CSI16:1,2009-12-08T05:00:00Z,29.4012,-89.0355,1012.92,11111222 
WAVCIS,ioos:station:WAVCIS:CSI16:1,2009-12-08T06:00:00Z,29.4012,-89.0355,1010.69,11111222 
WAVCIS,ioos:station:WAVCIS:CSI16:1,2009-12-08T07:00:00Z,29.4012,-89.0355,1010.82,11111222 
WAVCIS,ioos:station:WAVCIS:CSI16:1,2009-12-08T08:00:00Z,29.4012,-89.0355,1009.81,11111222 
WAVCIS,ioos:station:WAVCIS:CSI16:1,2009-12-08T09:00:00Z,29.4012,-89.0355,1009.25,11111222 
WAVCIS,ioos:station:WAVCIS:CSI16:1,2009-12-08T10:00:00Z,29.4012,-89.0355,1009.62,11111222 
WAVCIS,ioos:station:WAVCIS:CSI16:1,2009-12-08T11:00:00Z,29.4012,-89.0355,1008.84,11111222 
WAVCIS,ioos:station:WAVCIS:CSI16:1,2009-12-08T12:00:00Z,29.4012,-89.0355,1009.4,11111222 
WAVCIS,ioos:station:WAVCIS:CSI16:1,2009-12-08T13:00:00Z,29.4012,-89.0355,1009.4,11111222 
WAVCIS,ioos:station:WAVCIS:CSI16:1,2009-12-08T14:00:00Z,29.4012,-89.0355,1009.62,11111222 
WAVCIS,ioos:station:WAVCIS:CSI16:1,2009-12-08T15:00:00Z,29.4012,-89.0355,1010.23,11111222 
WAVCIS,ioos:station:WAVCIS:CSI16:1,2009-12-08T16:00:00Z,29.4012,-89.0355,1009.58,11111222 
WAVCIS,ioos:station:WAVCIS:CSI16:1,2009-12-08T17:00:00Z,29.4012,-89.0355,1008.74,11111222 
WAVCIS,ioos:station:WAVCIS:CSI16:1,2009-12-08T18:00:00Z,29.4012,-89.0355,1007.47,11111222 
WAVCIS,ioos:station:WAVCIS:CSI16:1,2009-12-08T19:00:00Z,29.4012,-89.0355,1006.293,11111222 
WAVCIS,ioos:station:WAVCIS:CSI16:1,2009-12-08T20:00:00Z,29.4012,-89.0355,1005.059,11111222 
WAVCIS,ioos:station:WAVCIS:CSI16:1,2009-12-08T21:00:00Z,29.4012,-89.0355,1004.099,11111222 
WAVCIS,ioos:station:WAVCIS:CSI16:1,2009-12-08T22:00:00Z,29.4012,-89.0355,1003.575,11111222 
WAVCIS,ioos:station:WAVCIS:CSI16:1,2009-12-08T23:00:00Z,29.4012,-89.0355,1003.54,11111222 
WAVCIS,ioos:station:WAVCIS:CSI16:1,2009-12-09T00:00:00Z,29.4012,-89.0355,1003.545,11111222 
WAVCIS,ioos:station:WAVCIS:CSI16:1,2009-12-09T01:00:00Z,29.4012,-89.0355,1003.466,11111222 
WAVCIS,ioos:station:WAVCIS:CSI16:1,2009-12-09T02:00:00Z,29.4012,-89.0355,1003.708,11111222 
WAVCIS,ioos:station:WAVCIS:CSI16:1,2009-12-09T03:00:00Z,29.4012,-89.0355,1003.764,11111222 
WAVCIS,ioos:station:WAVCIS:CSI16:1,2009-12-09T04:00:00Z,29.4012,-89.0355,1004.085,11111222 
WAVCIS,ioos:station:WAVCIS:CSI16:1,2009-12-09T05:00:00Z,29.4012,-89.0355,1003.593,11111222 
WAVCIS,ioos:station:WAVCIS:CSI16:1,2009-12-09T06:00:00Z,29.4012,-89.0355,1003.657,11111222 
WAVCIS,ioos:station:WAVCIS:CSI16:1,2009-12-09T07:00:00Z,29.4012,-89.0355,1003.403,11111222 
WAVCIS,ioos:station:WAVCIS:CSI16:1,2009-12-09T08:00:00Z,29.4012,-89.0355,1003.369,11111222 
WAVCIS,ioos:station:WAVCIS:CSI16:1,2009-12-09T09:00:00Z,29.4012,-89.0355,1002.843,11111222 
WAVCIS,ioos:station:WAVCIS:CSI16:1,2009-12-09T10:00:00Z,29.4012,-89.0355,1002.812,11111222 
WAVCIS,ioos:station:WAVCIS:CSI16:1,2009-12-09T11:00:00Z,29.4012,-89.0355,1002.754,11111222 
WAVCIS,ioos:station:WAVCIS:CSI16:1,2009-12-09T12:00:00Z,29.4012,-89.0355,1003.067,11111222 
WAVCIS,ioos:station:WAVCIS:CSI16:1,2009-12-09T13:00:00Z,29.4012,-89.0355,1003.256,11111222 
WAVCIS,ioos:station:WAVCIS:CSI16:1,2009-12-09T14:00:00Z,29.4012,-89.0355,1003.698,11111222 
WAVCIS,ioos:station:WAVCIS:CSI16:1,2009-12-09T15:00:00Z,29.4012,-89.0355,1004.576,11111222 
WAVCIS,ioos:station:WAVCIS:CSI16:1,2009-12-09T16:00:00Z,29.4012,-89.0355,1004.879,11111222 
WAVCIS,ioos:station:WAVCIS:CSI16:1,2009-12-09T17:00:00Z,29.4012,-89.0355,1004.632,11111222 
WAVCIS,ioos:station:WAVCIS:CSI16:1,2009-12-09T18:00:00Z,29.4012,-89.0355,1004.643,11111222 
WAVCIS,ioos:station:WAVCIS:CSI16:1,2009-12-09T19:00:00Z,29.4012,-89.0355,1004.059,11111222 
WAVCIS,ioos:station:WAVCIS:CSI16:1,2009-12-09T20:00:00Z,29.4012,-89.0355,1003.835,11111222 
WAVCIS,ioos:station:WAVCIS:CSI16:1,2009-12-09T21:00:00Z,29.4012,-89.0355,1004.274,11111222 
WAVCIS,ioos:station:WAVCIS:CSI16:1,2009-12-09T22:00:00Z,29.4012,-89.0355,1004.891,11111222 
WAVCIS,ioos:station:WAVCIS:CSI16:1,2009-12-09T23:00:00Z,29.4012,-89.0355,1005.555,11111222 
WAVCIS,ioos:station:WAVCIS:CSI16:1,2009-12-10T00:00:00Z,29.4012,-89.0355,1006.002,11111222 
WAVCIS,ioos:station:WAVCIS:CSI16:1,2009-12-10T01:00:00Z,29.4012,-89.0355,1006.772,11111222 
WAVCIS,ioos:station:WAVCIS:CSI16:1,2009-12-10T02:00:00Z,29.4012,-89.0355,1007.26,11111222 
WAVCIS,ioos:station:WAVCIS:CSI16:1,2009-12-10T03:00:00Z,29.4012,-89.0355,1007.71,11111222 
WAVCIS,ioos:station:WAVCIS:CSI16:1,2009-12-10T04:00:00Z,29.4012,-89.0355,1007.8,11111222 
WAVCIS,ioos:station:WAVCIS:CSI16:1,2009-12-10T05:00:00Z,29.4012,-89.0355,1007.96,11111222 
WAVCIS,ioos:station:WAVCIS:CSI16:1,2009-12-10T06:00:00Z,29.4012,-89.0355,1008.14,11111222 
WAVCIS,ioos:station:WAVCIS:CSI16:1,2009-12-10T07:00:00Z,29.4012,-89.0355,1008.37,11111222 
WAVCIS,ioos:station:WAVCIS:CSI16:1,2009-12-10T08:00:00Z,29.4012,-89.0355,1008.32,11111222 
WAVCIS,ioos:station:WAVCIS:CSI16:1,2009-12-10T09:00:00Z,29.4012,-89.0355,1008.8,11111222 
WAVCIS,ioos:station:WAVCIS:CSI16:1,2009-12-10T10:00:00Z,29.4012,-89.0355,1009.72,11111222 
WAVCIS,ioos:station:WAVCIS:CSI16:1,2009-12-10T11:00:00Z,29.4012,-89.0355,1010.25,11111222 
WAVCIS,ioos:station:WAVCIS:CSI16:1,2009-12-10T12:00:00Z,29.4012,-89.0355,1010.78,11111222 
WAVCIS,ioos:station:WAVCIS:CSI16:1,2009-12-10T13:00:00Z,29.4012,-89.0355,1011.6,11111222 
WAVCIS,ioos:station:WAVCIS:CSI16:1,2009-12-10T14:00:00Z,29.4012,-89.0355,1012.75,11111222 
WAVCIS,ioos:station:WAVCIS:CSI16:1,2009-12-10T15:00:00Z,29.4012,-89.0355,1014.12,11111222 
WAVCIS,ioos:station:WAVCIS:CSI16:1,2009-12-10T16:00:00Z,29.4012,-89.0355,1015.1,11111222 
WAVCIS,ioos:station:WAVCIS:CSI16:1,2009-12-10T17:00:00Z,29.4012,-89.0355,1015.17,11111222 
WAVCIS,ioos:station:WAVCIS:CSI16:1,2009-12-10T18:00:00Z,29.4012,-89.0355,1014.52,11111222 
WAVCIS,ioos:station:WAVCIS:CSI16:1,2009-12-10T19:00:00Z,29.4012,-89.0355,1013.73,11111222 
WAVCIS,ioos:station:WAVCIS:CSI16:1,2009-12-10T20:00:00Z,29.4012,-89.0355,1013.42,11111222 
WAVCIS,ioos:station:WAVCIS:CSI16:1,2009-12-10T21:00:00Z,29.4012,-89.0355,1013.63,11111222 
WAVCIS,ioos:station:WAVCIS:CSI16:1,2009-12-10T22:00:00Z,29.4012,-89.0355,1014.22,11111222 
WAVCIS,ioos:station:WAVCIS:CSI16:1,2009-12-10T23:00:00Z,29.4012,-89.0355,1014.77,11111222 
WAVCIS,ioos:station:WAVCIS:CSI16:1,2009-12-11T00:00:00Z,29.4012,-89.0355,1015.39,11111222 
WAVCIS,ioos:station:WAVCIS:CSI16:1,2009-12-11T01:00:00Z,29.4012,-89.0355,1016.18,11111222 
WAVCIS,ioos:station:WAVCIS:CSI16:1,2009-12-11T02:00:00Z,29.4012,-89.0355,1016.26,11111222 
WAVCIS,ioos:station:WAVCIS:CSI16:1,2009-12-11T03:00:00Z,29.4012,-89.0355,1016.47,11111222 
WAVCIS,ioos:station:WAVCIS:CSI16:1,2009-12-11T04:00:00Z,29.4012,-89.0355,1016.92,11111222 
WAVCIS,ioos:station:WAVCIS:CSI16:1,2009-12-11T05:00:00Z,29.4012,-89.0355,1016.52,11111222 
WAVCIS,ioos:station:WAVCIS:CSI16:1,2009-12-11T06:00:00Z,29.4012,-89.0355,1016.59,11111222 
WAVCIS,ioos:station:WAVCIS:CSI16:1,2009-12-11T07:00:00Z,29.4012,-89.0355,1016.17,11111222 
WAVCIS,ioos:station:WAVCIS:CSI16:1,2009-12-11T08:00:00Z,29.4012,-89.0355,1016.85,11111222 
WAVCIS,ioos:station:WAVCIS:CSI16:1,2009-12-11T09:00:00Z,29.4012,-89.0355,1017.04,11111222 
WAVCIS,ioos:station:WAVCIS:CSI16:1,2009-12-11T10:00:00Z,29.4012,-89.0355,1016.91,11111222 
WAVCIS,ioos:station:WAVCIS:CSI16:1,2009-12-11T11:00:00Z,29.4012,-89.0355,1016.76,11111222 
WAVCIS,ioos:station:WAVCIS:CSI16:1,2009-12-11T12:00:00Z,29.4012,-89.0355,1017.61,11111222 
WAVCIS,ioos:station:WAVCIS:CSI16:1,2009-12-11T13:00:00Z,29.4012,-89.0355,1018.49,11111222 
WAVCIS,ioos:station:WAVCIS:CSI16:1,2009-12-11T14:00:00Z,29.4012,-89.0355,1018.84,11111222 
WAVCIS,ioos:station:WAVCIS:CSI16:1,2009-12-11T15:00:00Z,29.4012,-89.0355,1019.31,11111222 
WAVCIS,ioos:station:WAVCIS:CSI16:1,2009-12-11T16:00:00Z,29.4012,-89.0355,1020.11,11111222 
WAVCIS,ioos:station:WAVCIS:CSI16:1,2009-12-11T17:00:00Z,29.4012,-89.0355,1019.97,11111222 
WAVCIS,ioos:station:WAVCIS:CSI16:1,2009-12-11T18:00:00Z,29.4012,-89.0355,1019.2,11111222 
WAVCIS,ioos:station:WAVCIS:CSI16:1,2009-12-11T19:00:00Z,29.4012,-89.0355,1018.12,11111222 
WAVCIS,ioos:station:WAVCIS:CSI16:1,2009-12-11T20:00:00Z,29.4012,-89.0355,1017.54,11111222 
WAVCIS,ioos:station:WAVCIS:CSI16:1,2009-12-11T21:00:00Z,29.4012,-89.0355,1017.33,11111222 